{"data":{"norad_id":52619,"intl_designator":"2022-052X","name":"STARLINK-3741","alt_names":[],"object_type":"PAYLOAD","status":"ACTIVE","operator":null,"country":"US","launch_date":"2022-05-14","launch_site_code":"AFETR","launch_vehicle":null,"mission":null,"orbit_class":"UNKNOWN","rcs_meters":null,"size_class":null,"mass_kg":null,"dimensions":null,"purposes":["comms"],"wikipedia_slug":null,"has_3d_model":false,"image_url":null,"decayed_at":null,"tle_current":{"epoch":"2026-05-25T02:47:16.884096Z","epoch_age_seconds":75736,"freshness":"FRESH","line1":"1 52619U 22052X   26145.11616764 -.00001608  00000+0 -82965-4 0  9994","line2":"2 52619  53.2147 286.0175 0001246  87.3849 272.7286 15.08846219222529","mean_motion":15.08846219,"eccentricity":0.0001246,"inclination_deg":53.2147,"raan_deg":286.0175,"arg_perigee_deg":87.3849,"mean_anomaly_deg":272.7286,"bstar":-8.2965e-5,"rev_number":22252,"period_min":95.437161313522,"perigee_km":538.86241450639,"apogee_km":540.5863455623,"semimajor_km":6917.8613800343,"source":"CELESTRAK","updated_at":"2026-05-25T13:38:17.201059Z"}}}